Regional Weather Roundup
Issued by NWS

Home | Current Version | Previous Version | Graphics & Text | Print | Product List | Glossary Off
Versions: 1 2 3 4 5 6 7 8 9 10 11 12 13 14 15 16 17 18 19 20 21 22 23 24 25 26 27 28 29 30 31 32 33 34 35 36 37 38 39 40 41 42 43 44 45 46 47 48 49 50

000
ASUS43 KDTX 172310
RWRMI
MICHIGAN HOURLY REGIONAL WEATHER ROUNDUP
NATIONAL WEATHER SERVICE DETROIT/PONTIAC MI
600 PM EST SAT FEB 17 2018

NOTE: "FAIR" INDICATES FEW OR NO CLOUDS BELOW 12,000 FEET WITH NO
SIGNIFICANT WEATHER AND/OR OBSTRUCTION TO VISIBILITY.

MIZ047>049-052>055-059>063-066>070-074>076-081>083-180000-
SOUTHEAST LOWER MICHIGAN

CITY           SKY/WX    TMP DP  RH WIND       PRES   REMARKS
ADRIAN         CLOUDY    31  26  82 SW7       29.99S WCI  24
ALMA           CLOUDY    32  20  62 S6        29.92F WCI  26
ANN ARBOR      CLOUDY    32  24  72 S5        29.97F WCI  27
BAD AXE        CLOUDY    31  16  53 SW10G22   29.95R WCI  23
CARO           CLOUDY    32  20  61 W15G21    29.95S WCI  22
DETROIT CITY   CLOUDY    32  24  72 S5        30.00R WCI  27
DETROIT        CLOUDY    33  24  69 SW9       30.00R WCI  25
FLINT          CLOUDY    32  21  64 SW7       29.95F WCI  26
GROSSE ILE     CLOUDY    32  28  84 S8        30.00S WCI  25
HILLSDALE      CLOUDY    32  25  74 S5        29.94F WCI  27
HOWELL         CLOUDY    33  22  65 CALM      29.95F

CITY           SKY/WX    TMP DP  RH WIND       PRES   REMARKS
JACKSON        CLOUDY    33  23  66 S6        29.95F WCI  28
LAMBERTVILLE   CLOUDY    32  26  77 SW3       30.00S
LANSING        CLOUDY    33  20  58 SW10      29.95F WCI  25
LAPEER         CLOUDY    32  22  66 SW7       29.95F WCI  26
MASON          CLOUDY    33  20  59 CALM      29.95S
MONROE         CLOUDY    33  25  73 CALM      29.99F
MT. CLEMENS    CLOUDY    31  29  92 S9        29.98R WCI  23
PONTIAC        CLOUDY    32  21  64 S3        29.94F
PORT HOPE        N/A     31  14  49 SW10G17   29.94R WCI  22
PORT HURON     FAIR      30  23  74 SW6       30.00R WCI  24
TRI CITIES     LGT SNOW  30  20  66 W14       29.95F WCI  19
MIDLAND        CLOUDY    32  13  45 SW7       29.92F WCI  26
TROY           CLOUDY    33  23  65 S6        30.00S WCI  28
SAGINAW HB     CLOUDY    32  25  74 CALM      29.95F
$$
MIZ043>046-050>051-056>058-064>065-071>073-077>080-180000-
SOUTHWEST LOWER MICHIGAN

CITY           SKY/WX    TMP DP  RH WIND       PRES   REMARKS
BATTLE CREEK   CLOUDY    32  24  72 S3        29.95S
BENTON HARBOR  LGT SNOW  33  27  78 S7        29.95S VSB 1   WCI  27
BIG RAPIDS     CLOUDY    30  18  61 SW6       29.90R WCI  24
COLDWATER      CLOUDY    32  25  74 SW3       29.95F
FREMONT        LGT SNOW  31  22  71 SW8       29.92R WCI  23
HOLLAND        CLOUDY    32  24  72 SW6       29.96R WCI  26
GRAND RAPIDS   LGT SNOW  31  23  72 SW10      29.94S WCI  22
IONIA          FLURRIES  32  20  61 SW16      29.92F WCI  22
KALAMAZOO      CLOUDY    34  23  64 SW6       29.96S WCI  29
LUDINGTON      SNOW      28  27  97 W9        29.93R VSB 1/2 WCI  19
MARSHALL       CLOUDY    32  22  66 CALM      29.94F
MOUNT PLEASANT MOCLDY    32  10  39 SW3       29.90F
MUSKEGON       LGT SNOW  30  25  81 SW14      29.95R VSB 3/4 WCI  19
SOUTH HAVEN    CLOUDY    33  25  73 CALM      29.95S
$$
MIZ016>042-180000-
NORTHERN LOWER MICHIGAN

CITY           SKY/WX    TMP DP  RH WIND       PRES   REMARKS
ALPENA         CLOUDY    32  17  54 SW10      29.86R WCI  24
BEAVER ISLAND  CLOUDY    28  25  91 SW12G20   29.82S FOG     WCI  17
BELLAIRE       CLOUDY    30  22  70 SW8       29.87S WCI  23
CADILLAC       CLOUDY    28  13  52 SW12G17   29.84S WCI  18
CHARLEVOIX     LGT SNOW  28  27  94 SW10G16   29.87S VSB 1   WCI  19
FRANKFORT      LGT SNOW  29  27  92 SW8G16    29.89R VSB 1   WCI  21
GAYLORD        CLOUDY    28  17  63 SW17      29.81F WCI  16
GRAYLING       CLOUDY    29  16  57 SW13      29.83S WCI  19
HARBOR SPRINGS LGT SNOW  28  26  94 SW9       29.83F WCI  19
HOUGHTON LAKE  CLOUDY    29  15  56 SW13      29.86F WCI  19
MANISTEE       LGT SNOW  28  25  86 SW10      29.92R VSB 3/4 WCI  19
OSCODA         LGT SNOW  29  21  72 SW13      29.90S WCI  18
PELLSTON       LGT SNOW  28  24  85 SW7       29.83F FOG     WCI  21
ROGERS CITY    MOCLDY    32  14  47 SW7       29.84S WCI  26
TRAVERSE CITY  FLURRIES  31  18  58 W13G20    29.86S WCI  21
$$
MIZ007>008-015-180000-
EASTERN UPPER MICHIGAN

CITY           SKY/WX    TMP DP  RH WIND       PRES   REMARKS
KINROSS        MIX PCPN  27  23  85 SW9       29.80R WCI  18
MACKINAC ISLAN LGT SNOW  27  25  92 SW13G23   29.81F WCI  16
NEWBERRY       FAIR      24  21  91 SW10      29.78S WCI  13
S. S. MARIE    CLOUDY    29  22  75 SW12      29.79R WCI  19
MUNISING         N/A     28  14  55 S7        29.76R WCI  21
$$
MIZ004>006-011>014-085-180000-
CENTRAL UPPER MICHIGAN

CITY           SKY/WX    TMP DP  RH WIND       PRES   REMARKS
MANISTIQUE     MOCLDY    24  22  89 SW12      29.79S WCI  13
ESCANABA       FAIR      27  20  75 SW12      29.80S WCI  17
MENOMINEE      FAIR      27  21  80 W8        29.85S WCI  18
SAWYER-GWINN   CLEAR     28  16  59 SW8       29.73S WCI  20
$$
MIZ001>003-009>011-084-180000-
WESTERN UPPER MICHIGAN

CITY           SKY/WX    TMP DP  RH WIND       PRES   REMARKS
IRON MOUNTAIN  FAIR      28  18  66 SW7       29.76R WCI  21
HOUGHTON       FAIR      25  14  63 W16G24    29.74R WCI  12
COPPER HARBOR    N/A     27  15  61 W10G17    29.74R WCI  17
IRONWOOD       FAIR      27  14  58 W13       29.79R WCI  16
$$

ABBREVIATIONS USED IN REMARKS
   TC - TEMPERATURE IN CELSIUS
  WCI - WIND CHILL INDEX
   HX - HEAT INDEX
  VSB - VISIBILITY




USA.gov is the U.S. government's official web portal to all federal, state and local government web resources and services.